• MPC Preparation (Info)

  • MPEC 2005-T41 : 2005 SB223

    The following Minor Planet Electronic Circular may be linked-to from your own Web pages, but must not otherwise be redistributed electronically.

    A form allowing access to any MPEC is at the bottom of this page.


    Read MPEC 2005-T40 Read MPEC 2005-T42


    M.P.E.C. 2005-T41                                Issued 2005 Oct. 6, 18:18 UT
    
         The Minor Planet Electronic Circulars contain information on unusual
             minor planets and routine data on comets.  They are published
       on behalf of Commission 20 of the International Astronomical Union by the
              Minor Planet Center, Smithsonian Astrophysical Observatory,
                              Cambridge, MA 02138, U.S.A.
    
                      Supported in part by the Brinson Foundation
                 Prepared using the Tamkin Foundation Computer Network
    
                                  MPC@CFA.HARVARD.EDU
              URL http://cfa-www.harvard.edu/iau/mpc.html  ISSN 1523-6714
    
                                      2005 SB223
    
    Observations:
         K05SM3B* C2005 09 30.74022 05 38 32.06 -49 18 41.3          19.4 V ET041E12
         K05SM3B  C2005 09 30.74907 05 38 32.46 -49 19 00.8          19.2 V ET041E12
         K05SM3B  C2005 09 30.75806 05 38 32.78 -49 19 20.3          19.6 V ET041E12
         K05SM3B  C2005 09 30.76684 05 38 33.21 -49 19 39.4          19.3 V ET041E12
         K05SM3B  C2005 09 30.77865 05 38 33.67 -49 20 05.6          19.1 V ET041E12
         K05SM3B  C2005 09 30.77953 05 38 33.73 -49 20 06.4          19.5 V ET041E12
         K05SM3B  C2005 09 30.78040 05 38 33.69 -49 20 09.3          19.7 V ET041E12
         K05SM3B  C2005 09 30.78259 05 38 33.88 -49 20 13.2          19.6 V ET041E12
         K05SM3B  C2005 09 30.78347 05 38 33.86 -49 20 16.0          19.8 V ET041E12
         K05SM3B  C2005 10 01.64814 05 39 11.83 -49 51 22.4          19.3 R ET041474
         K05SM3B  C2005 10 01.65009 05 39 11.90 -49 51 26.5          19.4 R ET041474
         K05SM3B  C2005 10 01.65207 05 39 11.98 -49 51 30.5          19.3 R ET041474
         K05SM3B  C2005 10 01.70477 05 39 14.32 -49 53 24.7          19.2 V ET041E12
         K05SM3B  C2005 10 01.71060 05 39 14.58 -49 53 37.7          19.7 V ET041E12
         K05SM3B  C2005 10 01.72235 05 39 15.01 -49 54 03.4          19.7 V ET041E12
         K05SM3B  C2005 10 02.71507 05 39 57.31 -50 29 44.6          19.4 V ET041E12
         K05SM3B  C2005 10 02.72115 05 39 57.60 -50 29 57.9          19.4 V ET041E12
         K05SM3B  C2005 10 02.72709 05 39 57.74 -50 30 10.8          19.2 V ET041E12
         K05SM3B  C2005 10 02.73304 05 39 57.99 -50 30 23.6          19.6 V ET041E12
         K05SM3B  C2005 10 03.62360 05 40 35.03 -51 02 22.0          19.8 R ET041474
         K05SM3B  C2005 10 03.62603 05 40 35.02 -51 02 27.3          19.4 R ET041474
         K05SM3B  C2005 10 03.62975 05 40 35.18 -51 02 35.6          19.6 R ET041474
         K05SM3B  C2005 10 03.74327 05 40 39.70 -51 06 39.9          19.6 V ET041E12
         K05SM3B  C2005 10 03.74451 05 40 39.76 -51 06 43.3          19.5 V ET041E12
         K05SM3B  C2005 10 03.74589 05 40 39.78 -51 06 46.8          18.5 V ET041E12
         K05SM3B  C2005 10 03.74750 05 40 39.90 -51 06 49.3          19.5 V ET041E12
         K05SM3B  C2005 10 03.74909 05 40 39.96 -51 06 53.2          19.1 V ET041E12
         K05SM3B  C2005 10 03.75066 05 40 39.95 -51 06 56.9          19.0 V ET041E12
         K05SM3B  C2005 10 04.73722 05 41 19.51 -51 42 18.3          19.6 V ET041E12
         K05SM3B  C2005 10 04.74704 05 41 19.86 -51 42 39.0          19.4 V ET041E12
         K05SM3B  C2005 10 04.75694 05 41 20.30 -51 43 00.6          19.5 V ET041E12
         K05SM3B  C2005 10 04.76672 05 41 20.55 -51 43 21.5          19.0 V ET041E12
         K05SM3B  C2005 10 05.66646 05 41 55.57 -52 15 31.3          18.9 V ET041E12
         K05SM3B  C2005 10 05.66785 05 41 55.68 -52 15 33.9          18.9 V ET041E12
         K05SM3B  C2005 10 05.77331 05 41 59.46 -52 19 20.6          19.1 R ET041E12
         K05SM3B  C2005 10 06.30731 05 42 19.50 -52 38 25.1          18.9 R ET041I77
         K05SM3B  C2005 10 06.31154 05 42 19.67 -52 38 33.8          18.9 R ET041I77
         K05SM3B  C2005 10 06.31577 05 42 19.83 -52 38 43.0          18.8 R ET041I77
    
    Observer details:
    474 Mount John Observatory, Lake Tekapo.  Observers A. C. Gilmore,
        P. M. Kilmartin.  Measurers P. M. Kilmartin, a. C. Gilmore.  1.0-m f/7.7
        reflector + CCD.
    E12 Siding Spring Survey.  Observer R. H. McNaught.  Measurers E. C. Beshore,
        C. M. Casey, E. J. Christensen, G. J. Garradd, A. D. Grauer, R. E. Hill,
        S. M. Larson, R. H. McNaught, R. A. Kowalski.  0.5-m Uppsala Schmidt + CCD.
    I77 CEAMIG-REA Observatory, Belo Horizonte.  Observers C. Jacques, E. Pimentel.
        Measurer C. Jacques.  0.30-m f/3.0 Schmidt-Cassegrain + CCD.
    
    Orbital elements:
    2005 SB223
    Epoch 2005 Aug. 18.0 TT = JDT 2453600.5                 MPC
    M 359.42131              (2000.0)            P               Q
    n   0.00646235     Peri.  252.51964     +0.24642026     -0.72935922
    a  28.5458093      Node   219.67333     +0.53839470     -0.44453562
    e   0.9031262      Incl.   91.43220     -0.80585868     -0.52002233
    P 152.52           H   14.2           G   0.15           U   5
    Residuals in seconds of arc
    050930 E12  0.1+  0.5+    051001 E12  0.3+  0.0     051003 E12  0.1+  0.2-
    050930 E12  0.4+  0.1+    051001 E12  0.3-  0.2-    051003 E12  0.5-  0.5-
    050930 E12  0.2-  0.1+    051002 E12  0.1+  0.5+    051004 E12  0.2+  0.4-
    050930 E12  0.3+  0.0     051002 E12  0.5+  0.4+    051004 E12  0.0   0.0
    050930 E12  0.1-  0.7-    051002 E12  0.4-  0.3+    051004 E12  0.7+  0.3-
    050930 E12  0.1+  0.4+    051002 E12  0.3-  0.4+    051004 E12  0.4-  0.2-
    050930 E12  0.6-  0.6-    051003 474  1.0+  0.2-    051005 E12  0.2-  0.0
    050930 E12  0.3+  0.3+    051003 474  0.0   0.3-    051005 E12  0.3+  0.4+
    050930 E12  0.2-  0.6-    051003 474  0.2+  0.5-    051005 E12  0.0   0.3+
    051001 474  0.0   0.3-    051003 E12  0.2-  0.6+    051006 I77  0.2-  0.2-
    051001 474  0.1-  0.1-    051003 E12  0.1-  0.1-    051006 I77  0.0   0.2+
    051001 474  0.2-  0.1+    051003 E12  0.4-  0.7-    051006 I77  0.1+  0.0
    051001 E12  0.1+  0.4+    051003 E12  0.2+  0.3+
    
    Ephemeris:
    2005 SB223               a,e,i = 28.55, 0.90, 91                 q = 2.7653
    Date    TT    R. A. (2000) Decl.     Delta      r     Elong.  Phase     V
    2005 10 07    05 42.75   -53 03.0    2.510    2.793    95.7    20.9    19.5
    2005 10 17    05 47.42   -58 51.4    2.518    2.781    94.6    20.9    19.5
    2005 10 27    05 48.56   -64 17.2    2.549    2.772    92.3    21.0    19.5
    2005 11 06    05 44.44   -69 10.5    2.598    2.767    89.2    21.0    19.5
    2005 11 16    05 32.59   -73 22.8    2.660    2.765    85.6    20.9    19.6
    2005 11 26    05 09.76   -76 46.4    2.729    2.767    81.9    20.7    19.6
    2005 12 06    04 33.25   -79 13.3    2.799    2.773    78.3    20.4    19.7
    2005 12 16    03 45.30   -80 37.7    2.867    2.781    75.1    20.0    19.7
    2005 12 26    02 56.29   -81 03.5    2.928    2.794    72.5    19.6    19.8
    2006 01 05    02 18.42   -80 47.3    2.979    2.809    70.6    19.3    19.8
    2006 01 15    01 56.47   -80 10.1    3.017    2.828    69.6    19.0    19.8
    2006 01 25    01 48.86   -79 27.4    3.043    2.850    69.5    18.9    19.9
    2006 02 04    01 52.78   -78 48.1    3.054    2.875    70.3    18.8    19.9
    2006 02 14    02 06.05   -78 16.2    3.053    2.903    72.0    18.9    19.9
    2006 02 24    02 27.51   -77 52.0    3.040    2.934    74.5    19.0    19.9
    2006 03 06    02 56.79   -77 33.3    3.017    2.968    77.7    19.1    19.9
    2006 03 16    03 33.70   -77 15.4    2.988    3.004    81.4    19.1    19.9
    2006 03 26    04 17.75   -76 50.6    2.956    3.043    85.4    19.1    19.9
    2006 04 05    05 07.48   -76 09.2    2.925    3.084    89.5    18.9    19.9
    2006 04 15    05 59.99   -75 02.2    2.901    3.127    93.5    18.7    19.9
    2006 04 25    06 51.69   -73 23.0    2.887    3.173    97.1    18.3    20.0
    2006 05 05    07 39.66   -71 11.2    2.889    3.220    99.9    18.0    20.0
    2006 05 15    08 22.37   -68 31.4    2.910    3.269   101.8    17.6    20.0
    2006 05 25    08 59.65   -65 31.8    2.953    3.320   102.3    17.3    20.1
    2006 06 04    09 32.09   -62 22.0    3.020    3.372   101.5    17.1    20.1
    2006 06 14    10 00.51   -59 11.6    3.111    3.426    99.4    17.0    20.2
    2006 06 24    10 25.68   -56 08.2    3.224    3.481    96.0    16.9    20.3
    2006 07 04    10 48.29   -53 17.7    3.357    3.537    91.7    16.7    20.5
    2006 07 14    11 08.86   -50 43.9    3.507    3.595    86.7    16.4    20.6
    2006 07 24    11 27.80   -48 28.3    3.670    3.654    81.1    15.9    20.7
    2006 08 03    11 45.43   -46 31.6    3.842    3.713    75.1    15.3    20.8
    2006 08 13    12 01.98   -44 52.9    4.017    3.774    68.9    14.5    20.9
    2006 08 23    12 17.63   -43 31.1    4.193    3.835    62.6    13.5    21.0
    
    Kyle E. Smalley              (C) Copyright 2005 MPC           M.P.E.C. 2005-T41
    

    Read MPEC 2005-T40 Read MPEC 2005-T42


    MPEC number:

    Enter an MPEC number in one of the following forms:

    • 1997-B01 (the full form)
    • J97B01 (the packed version of the full form)
    • B01 (the abbreviated form)